Formigueres, France 16 day weather forecast

Slopes altitude range 1750 m - 2400m

Number of lifts: 7 Pistes: 22km

In some cases the lift and piste totals shown are for the ski domain (e.g. Three Valleys) rather than individual resort (e.g. Courchevel)

Overview

The 16 day weather forecast is fully updated 4 times every day.

    • Thu 21 FEB 2019
    • Thu 21
    • 1C 9C
    • Fri 22 FEB 2019
    • Fri 22
    • 0C 10C
    • Sat 23 FEB 2019
    • Sat 23
    • 2C 12C
    • Sun 24 FEB 2019
    • Sun 24
    • 0C 10C
    • Mon 25 FEB 2019
    • Mon 25
    • 0C 9C
    • Tue 26 FEB 2019
    • Tue 26
    • 0C 9C
    • Wed 27 FEB 2019
    • Wed 27
    • 1C 12C
    • Thu 28 FEB 2019
    • Thu 28
    • 0C 9C
    • Fri 01 MAR 2019
    • Fri 01
    • 7C 13C
    • Sat 02 MAR 2019
    • Sat 02
    • 6C 16C
    • Sun 03 MAR 2019
    • Sun 03
    • 6C 17C
    • Mon 04 MAR 2019
    • Mon 04
    • 9C 19C
    • Tue 05 MAR 2019
    • Tue 05
    • 6C 15C
    • Wed 06 MAR 2019
    • Wed 06
    • 7C 15C
    • Thu 07 MAR 2019
    • Thu 07
    • 2C 6C
    • Fri 08 MAR 2019
    • Fri 08
    • -1C 8C

Date:

Time Type 0°C level Temp Chill Snow Cloud Speed Gust Dir Press
18:00 2583m 9°C 9_2 0cm 0% 2mph 3mph 1029mB
21:00 2550m 0°C 0_3 0cm 0% 3mph 4mph 1030mB
0:00 2590m 0°C 0_4 0cm 0% 4mph 5mph 1031mB
3:00 2570m 0°C 0_4 0cm 0% 4mph 6mph 1030mB
6:00 2591m 0°C 0_6 0cm 0% 6mph 7mph 1030mB
9:00 3074m 0°C 0_6 0cm 0% 6mph 10mph 1029mB
12:00 3062m 10°C 10_7 0cm 0% 7mph 10mph 1028mB
15:00 3411m 10°C 10_6 0cm 0% 6mph 8mph 1026mB
18:00 3645m 10°C 10_5 0cm 0% 5mph 6mph 1027mB
21:00 3647m 2°C 2_5 0cm 0% 5mph 6mph 1028mB
0:00 3493m 2°C 2_4 0cm 0% 4mph 5mph 1028mB
3:00 3564m 2°C 2_3 0cm 0% 3mph 4mph 1028mB
6:00 3716m 2°C 2_3 0cm 0% 3mph 4mph 1028mB
9:00 3717m 2°C 2_2 0cm 0% 2mph 3mph 1029mB
12:00 3652m 12°C 12_2 0cm 0% 2mph 5mph 1028mB
15:00 3559m 12°C 12_5 0cm 0% 5mph 6mph 1027mB
18:00 3699m 12°C 12_5 0cm 0% 5mph 6mph 1028mB
21:00 3603m 2°C 2_5 0cm 0% 5mph 6mph 1031mB
0:00 3530m 1°C 1_3 0cm 0% 3mph 4mph 1031mB
3:00 3004m 0°C 0_3 0cm 0% 3mph 4mph 1031mB
6:00 2848m 0°C 0_3 0cm 0% 3mph 4mph 1032mB
9:00 3307m 0°C 0_2 0cm 0% 2mph 4mph 1033mB
12:00 2813m 10°C 10_2 0cm 0% 2mph 4mph 1033mB
15:00 2688m 10°C 10_4 0cm 0% 4mph 6mph 1031mB
18:00 3369m 10°C 10_2 0cm 2% 2mph 3mph 1032mB
21:00 3708m 1°C 1_3 0cm 6% 3mph 4mph 1033mB
0:00 3196m 1°C 1_3 0cm 3% 3mph 3mph 1033mB
3:00 3140m 0°C 0_3 0cm 0% 3mph 3mph 1033mB
6:00 3103m 0°C 0_2 0cm 0% 2mph 3mph 1032mB
9:00 3435m 0°C 0_2 0cm 0% 2mph 3mph 1032mB
12:00 2581m 9°C 9_3 0cm 0% 3mph 3mph 1031mB
15:00 2506m 9°C 9_5 0cm 8% 5mph 5mph 1030mB
18:00 2315m 9°C 9_7 0cm 51% 7mph 10mph 1032mB
21:00 2192m 0°C 0_4 0cm 84% 4mph 5mph 1033mB
0:00 1604m -2°C -2_5 0cm 43% 5mph 6mph 1033mB
3:00 1723m -2°C -2_5 0cm 0% 5mph 6mph 1032mB
6:00 1772m -2°C -2_5 0cm 0% 5mph 7mph 1032mB
9:00 2724m 0°C 0_6 0cm 0% 6mph 8mph 1031mB
12:00 2653m 9°C 9_6 0cm 0% 6mph 5mph 1030mB
15:00 2698m 10°C 10_5 0cm 0% 5mph 5mph 1028mB
18:00 2913m 10°C 10_4 0cm 0% 4mph 5mph 1028mB
21:00 3026m 1°C 1_4 0cm 0% 4mph 5mph 1029mB
0:00 3080m 1°C 1_4 0cm 0% 4mph 6mph 1028mB
3:00 3133m 1°C 1_5 0cm 0% 5mph 6mph 1027mB
6:00 3155m 1°C 1_4 0cm 0% 4mph 6mph 1026mB
9:00 3156m 1°C 1_5 0cm 0% 5mph 7mph 1025mB
12:00 3152m 12°C 12_5 0cm 0% 5mph 6mph 1024mB
15:00 3099m 12°C 12_4 0cm 0% 4mph 5mph 1022mB
18:00 3204m 12°C 12_3 0cm 0% 3mph 4mph 1023mB
21:00 3046m 3°C 3_3 0cm 0% 3mph 4mph 1024mB
0:00 2959m 2°C 2_3 0cm 0% 3mph 3mph 1024mB
3:00 2823m 1°C 1_4 0cm 0% 4mph 5mph 1025mB
6:00 2468m 0°C 0_5 0cm 0% 5mph 6mph 1026mB
9:00 2579m 0°C 0_5 0cm 0% 5mph 6mph 1026mB
12:00 2530m 9°C 9_4 0cm 0% 4mph 3mph 1026mB
15:00 2555m 9°C 9_4 0cm 3% 4mph 4mph 1024mB
18:00 2398m 9°C 9_4 0cm 49% 4mph 5mph 1025mB
21:00 2363m 2°C 2_5 0cm 100% 5mph 8mph 1026mB
0:00 2296m 1°C 1_5 0cm 100% 5mph 7mph 1026mB
3:00 2296m 8°C 8_6 0cm 92% 6mph 12mph 1025mB
6:00 2173m 7°C 7_6 0cm 79% 6mph 12mph 1026mB
9:00 2254m 7°C 7_6 0cm 66% 6mph 11mph 1026mB
12:00 2274m 13°C 13_8 0cm 46% 8mph 11mph 1025mB
15:00 2305m 14°C 14_7 0cm 29% 7mph 10mph 1023mB
18:00 2303m 14°C 14_4 0cm 17% 4mph 5mph 1024mB
21:00 2355m 8°C 8_4 0cm 1% 4mph 5mph 1025mB
0:00 2309m 7°C 7_4 0cm 1% 4mph 5mph 1025mB
3:00 2408m 6°C 6_4 0cm 14% 4mph 5mph 1024mB
6:00 2381m 6°C 6_4 0cm 39% 4mph 5mph 1025mB
9:00 2575m 6°C 6_4 0cm 88% 4mph 8mph 1026mB
12:00 2446m 16°C 16_9 0cm 80% 9mph 13mph 1025mB
15:00 2529m 16°C 16_8 0cm 19% 8mph 13mph 1023mB
18:00 2437m 16°C 16_5 0cm 54% 5mph 7mph 1025mB
21:00 2404m 10°C 10_7 0cm 53% 7mph 16mph 1027mB
0:00 2432m 8°C 8_5 0cm 76% 5mph 10mph 1027mB
3:00 2364m 7°C 7_5 0cm 99% 5mph 6mph 1026mB
6:00 2483m 7°C 7_4 0cm 93% 4mph 5mph 1027mB
9:00 2806m 6°C 6_4 0cm 95% 4mph 7mph 1027mB
12:00 3056m 17°C 17_5 0cm 92% 5mph 6mph 1025mB
Morning 0mm 0 3212m 10°C 10_5 0cm 23% 5mph 6mph 1021mB
Afternoon 0mm 0 2633m 19°C 19_5 0cm 39% 5mph 6mph 1017mB
Morning 0.0260417mm 0 2350m 8°C 8_4 0cm 86% 4mph 7mph 1019mB
Afternoon 0mm 0 2091m 15°C 15_3 0cm 93% 3mph 4mph 1015mB
Morning 0.03125mm 0 2324m 9°C 9_7 0cm 68% 7mph 19mph 1014mB
Afternoon 0.0104167mm 0 2550m 15°C 15_5 0cm 65% 5mph 5mph 1014mB
Morning 0.619792mm 0 1607m 5°C 5_9 0cm 84% 9mph 17mph 1016mB
Afternoon 0.0260417mm 0 954m 6°C 6_15 1cm 84% 15mph 22mph 1024mB
Morning 0mm 0 635m 0°C 0_11 0cm 11% 11mph 22mph 1032mB
Afternoon 0mm 0 1216m 8°C 8_8 0cm 0% 8mph 10mph 1032mB
Morning 0mm 0 2447m 2°C 2_5 0cm 2% 5mph 6mph 1033mB
Afternoon 0mm 0 2651m 15°C 15_4 0cm 18% 4mph 4mph 1030mB

16 day outlook at a glance

Forecast issued: 21/02/2019 17:43:28

Chat

Your comments and questions. In a resort? Let us know what it's like!


Characters left 250

For terms and conditions see Readers Comments on the Cookie and privacy policy page.